Location: Buffign�court
(47.8126°N, 6.0176°E)
Time: 20:04:36
(UTC+00:00)

Cosmos 292 Rocket - Pass Details

Date: 16 June 2021
Orbit: 674 x 693 km, 74.0° (Epoch: 31 July)

Event Time Altitude Azimuth Distance (km) Brightness Sun altitude
Rises 20:43:28 0° 205° (SSW) 3,052 6.9 -8.9°
Reaches altitude 10° 20:45:47 10° 206° (SSW) 2,138 6.1 -9.1°
Maximum altitude 20:50:36 77° 293° (WNW) 711 4.0 -9.6°
Drops below altitude 10° 20:55:26 10° 20° (NNE) 2,142 6.8 -10.1°
Sets 20:57:45 0° 22° (NNE) 3,059 7.6 -10.4°
